#timestamp,LO_Frequency,Hit,StdDev 
1586826015.0,286047002.6,P
1586826015.9,286047002.6,Y
1586826035.8,286047002.3,P
1586826055.6,286047001.4,P
1586826075.4,286047000.1,N
1586826095.3,286047001.9,N
1586826115.1,286047003.8,Y
1586826135.8,286047002.5,P
1586826155.7,286047001.0,N
1586826175.5,286046998.8,N
1586826195.4,286047000.8,N
1586826215.2,286046996.7,N
1586826235.0,286046997.2,N
1586826236.0,286046997.2,N
1586826255.8,286046998.6,N
1586826275.6,286046998.5,N
1586826295.5,286046999.1,N
1586826315.3,286046996.9,N
1586826335.1,286046998.1,N
1586826355.9,286046999.4,N
1586826375.7,286046996.7,N
1586826395.6,286046999.2,N
1586826415.4,286046997.0,N
1586826435.2,286046999.3,N
1586826455.1,286046998.0,N
1586826456.0,286046998.0,N
1586826475.8,286046995.7,N
1586826495.7,286046996.1,N
1586826515.5,286046995.1,N
1586826535.3,286046997.5,N
1586826555.2,286046997.4,N
1586826575.0,286046995.3,N
1586826575.9,286046995.3,N
1586826595.7,286046999.1,N
1586826615.6,286046999.4,N
1586826635.4,286046998.2,N
1586826655.3,286046999.6,N
1586826675.1,286046997.8,N
1586826695.8,286047000.6,N
1586826715.7,286046999.0,N
1586826735.5,286046996.5,N
1586826755.4,286046998.3,N
1586826775.2,286047000.7,N
1586826795.0,286046998.6,N
1586826795.9,286046998.6,N
1586826815.8,286046998.1,N
1586826835.6,286046998.4,N
1586826855.4,286046999.2,N
1586826875.3,286047001.2,N
1586826895.1,286046999.1,N
1586826915.9,286046999.0,N
1586826935.7,286046996.5,N
1586826955.5,286046997.1,N
1586826975.4,286046997.0,N
1586826995.2,286046997.3,N
1586827015.1,286046999.2,N
1586827016.0,286046999.2,N
1586827035.8,286046996.7,N
1586827055.6,286046998.0,N
1586827075.5,286046995.5,Y
1586827095.3,286046998.8,P
1586827115.2,286046999.0,P
1586827135.9,286046996.5,P
1586827155.7,286046998.8,N
1586827175.6,286046998.5,N
1586827195.4,286047000.3,N
1586827215.2,286046998.1,N
1586827235.1,286046998.9,N
1586827236.0,286046998.9,N
1586827255.8,286046998.8,N
1586827275.7,286046998.8,N
1586827295.5,286046998.7,N
1586827315.3,286046999.6,N
1586827335.2,286046997.0,Y
1586827355.0,286046996.7,P
1586827355.9,286046996.7,P
1586827375.8,286046999.6,N
1586827395.6,286046998.9,N
1586827415.4,286046997.4,N
1586827435.3,286046996.9,N
1586827455.1,286046997.5,N
1586827475.9,286046994.9,Y
1586827495.7,286047000.8,P
1586827515.5,286046998.7,N
1586827535.4,286047001.2,N
1586827555.2,286047001.2,N
1586827575.0,286047000.0,N
1586827576.0,286047000.0,N
1586827595.8,286046998.6,N
1586827615.6,286046998.8,N
1586827635.5,286047000.2,N
1586827655.3,286047001.1,N
1586827675.1,286047002.8,N
1586827695.9,286047001.0,N
1586827715.7,286047000.8,N
1586827735.6,286046998.7,N
1586827755.4,286046999.0,N
1586827775.2,286046997.1,N
1586827795.1,286047001.2,N
1586827796.0,286047001.2,N
1586827815.8,286047000.5,N
1586827835.7,286047000.7,N
1586827855.5,286046998.1,N
1586827875.3,286047001.0,N
1586827895.2,286047001.1,N
1586827915.0,286046998.4,N
1586827915.9,286046998.4,N
1586827935.7,286046999.5,N
1586827955.6,286046997.1,N
1586827975.4,286047000.9,N
1586827995.3,286047001.4,N
1586828015.1,286047001.9,N
1586828035.8,286047003.2,N
1586828055.7,286047006.0,Y
1586828075.5,286047000.2,P
1586828095.4,286047000.6,P
1586828115.2,286047001.2,P
1586828135.0,286047000.4,N
1586828135.9,286047000.4,N
1586828155.8,286046999.9,N
1586828175.6,286047001.5,Y
1586828195.5,286047002.3,P
1586828215.3,286047002.1,N
1586828235.1,286047001.4,N
1586828255.9,286047004.1,Y
1586828275.7,286047000.1,P
1586828295.6,286046998.3,N
1586828315.4,286047001.0,N
1586828335.2,286047000.2,N
1586828355.1,286047004.4,Y
1586828356.0,286047004.4,P
1586828375.8,286047002.7,N
1586828395.7,286047000.1,N
1586828415.5,286047001.5,N
1586828435.3,286047002.6,N
1586828455.2,286047000.8,N
1586828475.0,286046998.3,N
1586828475.9,286046998.3,N
1586828495.7,286046999.4,N
1586828515.6,286046998.1,N
1586828535.4,286046998.3,N
1586828555.3,286046998.4,N
1586828575.1,286046998.8,N
1586828576.0,286046998.8,N
1586828595.8,286046998.9,N
1586828615.7,286046999.9,N
1586828635.5,286047000.2,N
1586828655.4,286047000.6,N
1586828675.2,286047002.1,N
1586828695.0,286047002.1,N
1586828695.9,286047002.1,N
1586828715.8,286047004.0,N
1586828735.6,286047001.7,N
1586828755.5,286047002.2,N
1586828775.3,286047001.6,N
1586828795.1,286047004.4,N
1586828815.9,286047002.3,N
1586828835.7,286047000.2,N
1586828855.5,286047000.9,N
1586828875.4,286046999.7,N
1586828895.2,286047001.1,N
1586828915.1,286047004.2,N
1586828916.0,286047004.2,N
1586828935.8,286047001.6,N
1586828955.6,286047000.1,N
1586828975.5,286046998.5,N
1586828995.3,286047002.2,N
1586829015.2,286047000.7,N
1586829035.9,286047000.5,N
1586829055.7,286046996.7,N
1586829075.6,286046999.0,N
1586829095.4,286047000.7,N
1586829115.2,286047002.7,N
1586829135.1,286047004.1,N
1586829136.0,286047004.1,N
1586829155.8,286047004.0,N
1586829175.7,286047005.7,Y
1586829195.5,286047001.9,P
1586829215.3,286047002.5,P
1586829235.2,286047000.1,N
1586829255.0,286046998.6,N
1586829255.9,286046998.6,N
1586829275.8,286047001.1,N
1586829295.6,286047000.1,N
1586829315.4,286047002.3,N
1586829335.3,286047000.7,N
1586829355.1,286047005.5,Y
1586829375.9,286047003.5,P
1586829395.7,286047002.0,N
1586829415.5,286046999.7,N
1586829435.4,286047002.7,N
1586829455.2,286047004.2,Y
1586829475.0,286047001.7,P
1586829475.9,286047001.7,P
1586829495.8,286047001.6,P
1586829515.6,286047000.4,Y
1586829535.5,286046998.7,P
1586829555.3,286046997.0,N
1586829575.1,286047000.4,N
1586829595.9,286047000.2,N
